Home > Weather > Coeur d'Alene > Past weeks

Flag for USA Past Weather in Coeur d'Alene, Idaho, USA — Yesterday and Last 2 Weeks

Now
55 °F

Clear.


Feels Like: 53 °F
Forecast: 46 / 61 °F
Wind: 8 mph from Southeast

Location: Coeur d'Alene Weather Reporting System

Current Time: May 26, 2016 at 11:35:31 PM

Latest Report: May 26, 2016 at 10:55 PM


Visibility: 10 mi

Pressure: 29.90 "Hg (27.65 "Hg at 655m altitude)

Humidity: 63%

Dew Point: 43 °F

Location of Coeur d'AleneLocation

Past Weather in Coeur d'Alene — Graph

°F

Coeur d'Alene Temperature Yesterday

Maximum temperature yesterday: 72 °F (at 4:15 PM)
Minimum temperature yesterday: 45 °F (at 3:55 AM)
Average temperature yesterday: 59 °F

High & Low Weather Summary for the Past Weeks

 TemperatureHumidityPressure
High77 °F (May 12, 2:35 PM)100% (May 22, 3:55 PM)30.20 "Hg (May 22, 3:55 PM)
Low37 °F (May 20, 5:15 AM)11% (May 19, 12:15 PM)29.61 "Hg (May 20, 3:55 PM)
Average56 °F65%29.89 "Hg
* Reported May 11 10:15 PM — May 26 10:35 PM, Coeur d'Alene, Weather by CustomWeather, © 2016

Note: Actual official high and low records may vary slightly from our data, if they occured in-between our weather recording intervals... More about our weather records

Advertising

Coeur d'Alene Weather History for the Previous 24 Hours

Scroll right to see more
 ConditionsComfort  
Time TempWeatherWind HumidityBarometerVisibility
10:35 PM
Thu, May 26
55 °FPassing clouds.8 mph67%29.90 "Hg10 mi
10:15 PM57 °FPassing clouds.9 mph63%29.90 "Hg10 mi
9:55 PM57 °FPassing clouds.9 mph63%29.90 "Hg10 mi
9:35 PM57 °FPassing clouds.8 mph63%29.91 "Hg10 mi
9:15 PM57 °FPassing clouds.9 mph63%29.91 "Hg10 mi
8:55 PM57 °FSunny.9 mph63%29.90 "Hg10 mi
8:35 PM57 °FSunny.9 mph63%29.90 "Hg10 mi
8:15 PM59 °FSunny.9 mph59%29.90 "Hg10 mi
7:55 PM61 °FPassing clouds.10 mph55%29.90 "Hg10 mi
7:35 PM61 °FScattered clouds.12 mph55%29.90 "Hg10 mi
7:15 PM63 °FOvercast.12 mph52%29.90 "Hg10 mi
6:55 PM61 °FOvercast.7 mph55%29.90 "Hg10 mi
6:35 PM61 °FPartly sunny.10 mph55%29.91 "Hg10 mi
6:15 PM63 °FMore clouds than sun.10 mph52%29.91 "Hg10 mi
5:55 PM63 °FMore clouds than sun.12 mph56%29.92 "Hg10 mi
5:35 PM63 °FMore clouds than sun.8 mph52%29.92 "Hg10 mi
5:15 PM63 °FMore clouds than sun.9 mph52%29.93 "Hg10 mi
4:55 PM63 °FOvercast.10 mph56%29.93 "Hg10 mi
4:35 PM63 °FOvercast.10 mph56%29.94 "Hg10 mi
4:15 PM63 °FOvercast.9 mph52%29.95 "Hg10 mi
3:55 PM63 °FMore clouds than sun.8 mph56%29.96 "Hg10 mi
3:35 PM63 °FMore clouds than sun.10 mph52%29.96 "Hg10 mi
3:15 PM63 °FMostly cloudy.9 mph52%29.97 "Hg10 mi
2:55 PM63 °FMore clouds than sun.10 mph56%29.97 "Hg10 mi
2:35 PM63 °FOvercast.13 mph56%29.97 "Hg10 mi
2:15 PM63 °FCloudy.12 mph56%29.98 "Hg10 mi
1:55 PM63 °FOvercast.12 mph56%29.98 "Hg10 mi
1:35 PM63 °FOvercast.10 mph56%29.99 "Hg10 mi
1:15 PM61 °FMostly cloudy.9 mph59%29.99 "Hg10 mi
12:55 PM61 °FCloudy.10 mph59%30.00 "Hg10 mi
12:35 PM61 °FMore clouds than sun.10 mph55%30.01 "Hg10 mi
12:15 PM63 °FCloudy.14 mph56%30.01 "Hg10 mi
11:55 AM59 °FMore clouds than sun.15 mph59%30.01 "Hg10 mi
11:35 AM59 °FPartly sunny.14 mph59%30.01 "Hg10 mi
11:15 AM59 °FCloudy.13 mph59%30.02 "Hg10 mi
10:55 AM61 °FBroken clouds.15 mph55%30.02 "Hg10 mi
10:35 AM59 °FPassing clouds.12 mph59%30.03 "Hg10 mi
10:15 AM57 °FBroken clouds.14 mph63%30.03 "Hg10 mi
9:55 AM57 °FBroken clouds.15 mph63%30.03 "Hg10 mi
9:35 AM57 °FPassing clouds.14 mph63%30.03 "Hg10 mi
9:15 AM57 °FScattered clouds.14 mph63%30.03 "Hg10 mi
8:55 AM55 °FPartly sunny.12 mph67%30.03 "Hg10 mi
8:35 AM55 °FPassing clouds.13 mph67%30.03 "Hg10 mi
8:15 AM54 °FScattered clouds.10 mph72%30.03 "Hg10 mi
7:55 AM54 °FBroken clouds.9 mph72%30.04 "Hg10 mi
7:35 AM54 °FOvercast.8 mph72%30.03 "Hg10 mi
7:15 AM54 °FOvercast.7 mph72%30.03 "Hg10 mi
6:55 AM54 °FPartly sunny.8 mph67%30.03 "Hg10 mi
6:35 AM54 °FOvercast.7 mph72%30.03 "Hg10 mi
6:15 AM54 °FOvercast.3 mph72%30.02 "Hg10 mi
5:55 AM54 °FOvercast.6 mph72%30.02 "Hg10 mi
5:35 AM54 °FOvercast.No wind72%30.02 "Hg10 mi
5:15 AM54 °FOvercast.5 mph72%30.02 "Hg10 mi
4:55 AM54 °FOvercast.5 mph72%30.01 "Hg10 mi
4:35 AM54 °FOvercast.6 mph72%30.01 "Hg10 mi
4:15 AM54 °FOvercast.7 mph72%30.00 "Hg10 mi
3:55 AM55 °FOvercast.7 mph67%30.00 "Hg10 mi
3:35 AM55 °FMostly cloudy.3 mph67%30.01 "Hg10 mi
3:15 AM57 °FMostly cloudy.No wind63%30.01 "Hg10 mi
2:55 AM57 °FPassing clouds.No wind63%30.00 "Hg10 mi
2:35 AM57 °FClear.No wind63%29.99 "Hg10 mi
2:15 AM57 °FClear.No wind63%29.99 "Hg10 mi
1:55 AM57 °FPassing clouds.5 mph63%29.98 "Hg10 mi
1:35 AM59 °FOvercast.3 mph59%29.98 "Hg10 mi
12:55 AM59 °FMostly cloudy.6 mph63%29.98 "Hg10 mi
12:35 AM61 °FOvercast.5 mph55%29.98 "Hg10 mi
12:15 AM61 °FOvercast.No wind59%29.98 "Hg10 mi
11:55 PM
Wed, May 25
61 °FOvercast.N/A63%29.98 "Hg10 mi
11:35 PM59 °FOvercast.No wind68%29.97 "Hg10 mi
11:15 PM61 °FPassing clouds.6 mph59%29.97 "Hg10 mi
Weather by CustomWeather, © 2016

See weather overviewHow to use our weather pages